SL-16 DEB, 44574

Orbit data source: Space-Track

SL-16 DEB, 44574 is space debris in LEO originally from a launch on Fri, 25 Dec 1992 UTC launched from the Tyuratam Missile And Space Complex (TTMTR). Debris objects in space refer to the collection of defunct objects orbiting the Earth. Examples of debris include non-operational satellites, rocket bodies, and fragments generated from explosions, collisions, or faulty payload assembly.

Loading next visibility...
Identifier
44574, 1992-093LW
Orbit
LEO
Country
Flag of CISCIS
Related business
Manufacturer
Unknown
Mission
Spacecraft
Bus & Motor
Unknown
Mass
Unknown
Launch date (UTC)
1992-12-25 (33 years ago)
Launch vehicle
Unknown
Launch site
Tyuratam Missile And Space Complex (TTMTR)
Object type
Payload
Rocket body
Debris
Shape & HBR
Unknown
Radar Cross Section
Small (<0.1 m²)

Expand to show TLE details & history
Last TLE update: 23 hours ago

TLE from 23 hours ago
0 SL-16 DEB
1 44574U 92093LW  25242.04796473  .00013733  00000-0  35727-2 0  9995
2 44574  71.1222  12.4168 0087643 114.0074   5.0555 14.47400906612530
Epoch: 2025-08-30T01:09Z
TLE epoch observation values (Epoch: 2025-08-30T01:09:04.152Z)
Latitude
55.84°
Longitude
166.58289°
Altitude
680.818 km
Speed
7.555 km/s
True Right ascension
10h 49m 21s
True Declination
55° 40' 42"
Sunlit
Object was in daylight at epoch
Visualization orbit readout
Latitude
Unknown
Longitude
Unknown
Altitude
Unknown
Speed
Unknown
Apparent Right ascension
Unknown
Apparent Declination
Unknown
Sunlit
N/A
Visualization observer readout
Local Sidereal Time
16:04:36
Azimuth
Unknown
Elevation
Unknown
Doppler factor
Unknown
Orbital elements
Apogee altitude
794.347 km
Perigee altitude
669.715 km
Semi-major axis
7,110.168 km
Eccentricity
0.00876
Inclination
71.1222°
RAAN
12.4168°
Arg. of periapsis
114.0074°
True anomaly
5.14498°
Mean anomaly
5.0555°
Eccentric anomaly
5.10014°
Mean motion
3.62012 °/min
Orbital period
99.44 mins
BSTAR
0.0035727
Loading maneuver chart data...
Computing Atmospheric mass density...
Loading historical data...
Loading historical data...
Loading historical data...
Loading historical data...
Loading historical data...
Loading historical data...
Loading historical data...

Documentation

Showing up to 5 results
|